Terminal Aerodrome Forecast
Issued by NWS Portland, OR

Home | Current Version | Previous Version | Text Only | Print | Product List | Glossary On
Versions: 1 2 3 4 5 6 7 8 9 10 11 12 13 14 15 16 17 18 19 20 21 22 23 24 25
000
FTUS46 KPQR 282338
TAFEUG
TAF
KEUG 282338Z 2900/2924 35005KT P6SM SKC
     FM290700 26004KT P6SM SKC
     FM290900 26002KT P6SM SCT012
     FM291300 26004KT P6SM OVC011
     FM292000 35006KT P6SM SCT011 BKN015=

USA.gov is the U.S. government's official web portal to all federal, state and local government web resources and services.